Regional Weather Roundup
Issued by NWS Mobile, AL

Home | Current Version | Previous Version | Text Only | Print | Product List | Glossary On
Versions: 1 2 3 4 5 6 7 8 9 10 11 12 13 14 15 16 17 18 19 20 21 22 23 24 25 26 27 28
000
ASUS44 KMOB 282312
RWRMOB
REGIONAL WEATHER ROUNDUP
NATIONAL WEATHER SERVICE MOBILE AL
600 PM CDT SUN MAY 28 2017

NOTE: "FAIR" INDICATES FEW OR NO CLOUDS BELOW 12,000 FEET WITH NO
      SIGNIFICANT WEATHER AND/OR OBSTRUCTIONS TO VISIBILITY.

  * THESE STATIONS ARE PART OF THE UNIVERSITY OF SOUTH ALABAMA
    MESONET AND ARE NOT UNDER NWS OR FAA QUALITY CONTROL.

ALZ061>064-290000-
COASTAL ALABAMA

CITY           SKY/WX    TMP DP  RH WIND       PRES   REMARKS
MOBILE REG APT MOSUNNY   83  68  60 S8        29.97F
BROOKLEY FIELD MOSUNNY   85  72  65 VRB6      29.99R
USA CAMPUS*      N/A     82  70  65 CALM      29.97F
DOG RIVER*       N/A     82  73  74 SW6       30.71R


CITY           SKY/WX    TMP DP  RH WIND       PRES   REMARKS
GULF SHORES    SUNNY     82  71  70 SW6       29.98R

$$

ALZ051>060-290000-
INTERIOR SOUTHWEST AND SOUTH CENTRAL ALABAMA

CITY           SKY/WX    TMP DP  RH WIND       PRES   REMARKS
GREENVILLE     CLOUDY    82  66  58 SW9       29.91F
EVERGREEN      CLOUDY    81  70  69 S12       29.93F
ATMORE*          N/A     81  72  74 S7        29.95F
ANDALUSIA/OPP  PTSUNNY   83  71  67 S8G18     29.92F
ANDALUSIA*       N/A     81  72  74 S9        29.93F
FLORALA APT    CLOUDY    79  72  79 SW5       29.98F
FLORALA*         N/A     79  75  89 CALM      30.65S

$$

FLZ001>006-290000-
WESTERN FLORIDA PANHANDLE

CITY           SKY/WX    TMP DP  RH WIND       PRES   REMARKS
PENSACOLA      CLOUDY    85  71  63 W9        29.96F
NAS PENSACOLA  CLOUDY    82  69  64 SW8       29.96F
MILTON         CLOUDY    81  72  74 SW6       29.96F
WHTNG S FIELD  CLOUDY    82  72  71 SW6       29.96F


CITY           SKY/WX    TMP DP  RH WIND       PRES   REMARKS
JAY*             N/A     82  66  57 S7        29.96F
DUKE FIELD     CLOUDY    82  71  69 SW8       29.95F
CRESTVIEW      CLOUDY    81  74  79 W5        29.98F
VALPARAISO     PTSUNNY   81  74  78 SW9       29.96F
DESTIN         CLOUDY    83  83 100 SW7       29.96F HX  99

$$

MSZ076-079-290000-
INTERIOR SOUTHEAST MISSISSIPPI

CITY           SKY/WX    TMP DP  RH WIND       PRES   REMARKS
LEAKESVILLE*   NOT AVBL
AGRICOLA*        N/A     82  70  65 S3        29.94F

$$

MARINE OBSERVATIONS

STATION/POSITION TIME  TEMP    WIND        PRES    WAVE
                       AIR SEA DIR/SP/G            HT/PER
                 (UTC) (F)     (DEG/KT/KT) (MB)    (FT/S)
PASCAGOULA       2236   81     180/  4/  6 1015.0R
PETIT BOIS ISLND 2236   81     200/  5/  6 1016.0R
GRAND BAY        2145   82     200/  5     1016.0F
KATRINA CUT      2200   80     180/  7     1014.9
CEDAR POINT      2230   80     220/  7     1014.9F
E DAUPHIN ISLAND 2200   80     160/  6/  7 1014.4F
MIDDLE BAY LIGHT 2200   80     190/ 10     1014.6
USCG MOBILE BAY  2242   84 79  240/  4/  6 1015.6R
STATE DOCKS      2236   87 79              1014.8R
MEAHER PARK      2230   80     190/  8     1015.2R
FORT MORGAN      2236   80     190/  6/  7   N/A
12 S ORANGE BCH  2250   80 80  190/ 10/ 12 1014.5F   2/10
PENSACOLA BAY    2242   84 81              1014.9F
64 S DAUPHIN ISL 2250   80 81  170/ 12/ 16 1015.0F   3/ 5
67 S FORT MORGAN 2230   79     190/ 14     1015.6F

$$

SELECTED LOCATIONS ACROSS THE REGION

CITY           SKY/WX    TMP DP  RH WIND       PRES   REMARKS
NEW ORLEANS    CLOUDY    87  72  60 S12       29.92F
GULFPORT       SUNNY     84  75  74 S6        29.96S
PASCAGOULA AP  MOSUNNY   84  73  69 SW5       29.98R
PASCAGOULA*    NOT AVBL
HATTIESBURG    SUNNY     83  67  58 S10       29.92F
LAUREL         CLOUDY    82  66  57 S12       29.93F
MERIDIAN       CLOUDY    84  72  67 N5        29.91F
JACKSON        CLOUDY    84  66  54 NW5       29.92F
MONTGOMERY     CLOUDY    85  66  53 SW5       29.91R
TROY           CLOUDY    81  70  69 S10       29.91F
ASHFORD*         N/A     81  72  74 S9        29.93F
DOTHAN         CLOUDY    81  72  74 SW13      29.98F
PANAMA CITY    PTSUNNY   82  75  79 SW10      29.96F

$$





USA.gov is the U.S. government's official web portal to all federal, state and local government web resources and services.